Time,TemperatureF,DewpointF,PressureIn,WindDirection,WindDirectionDegrees,WindSpeedMPH,WindSpeedGustMPH,Humidity,HourlyPrecipIn,Conditions,Clouds,dailyrainin,SolarRadiationWatts/m^2,SoftwareType,DateUTC
2013-01-26 00:13:00,20.2,16.0,30.03,WNW,295,2.0,4.0,82,0.00,,,0.00,0,weatherlink.com 1.10,2013-01-26 05:13:00,
2013-01-26 00:28:00,20.3,16.0,30.03,NW,309,2.0,4.0,82,0.00,,,0.00,0,weatherlink.com 1.10,2013-01-26 05:28:00,
2013-01-26 00:43:00,20.1,15.0,30.04,WNW,294,1.0,3.0,82,0.00,,,0.00,0,weatherlink.com 1.10,2013-01-26 05:43:00,
2013-01-26 00:59:00,20.0,15.0,30.04,WNW,295,1.0,3.0,82,0.00,,,0.00,0,weatherlink.com 1.10,2013-01-26 05:59:00,
2013-01-26 01:14:00,19.9,15.0,30.04,WNW,295,2.0,4.0,82,0.00,,,0.00,0,weatherlink.com 1.10,2013-01-26 06:14:00,
2013-01-26 01:29:00,19.9,16.0,30.04,WNW,290,1.0,4.0,83,0.00,,,0.00,0,weatherlink.com 1.10,2013-01-26 06:29:00,
2013-01-26 01:43:00,19.9,16.0,30.05,WNW,298,2.0,4.0,85,0.00,,,0.00,0,weatherlink.com 1.10,2013-01-26 06:43:00,
2013-01-26 01:58:00,20.0,16.0,30.06,NW,307,2.0,5.0,84,0.00,,,0.00,0,weatherlink.com 1.10,2013-01-26 06:58:00,
2013-01-26 02:14:00,20.2,16.0,30.06,NW,306,2.0,3.0,85,0.00,,,0.00,0,weatherlink.com 1.10,2013-01-26 07:14:00,
2013-01-26 02:28:00,20.6,17.0,30.07,NW,317,0.0,3.0,85,0.00,,,0.00,0,weatherlink.com 1.10,2013-01-26 07:28:00,
2013-01-26 02:43:00,20.9,17.0,30.08,NNW,334,1.0,3.0,86,0.00,,,0.00,0,weatherlink.com 1.10,2013-01-26 07:43:00,
2013-01-26 02:59:00,21.4,19.0,30.09,West,274,6.0,9.0,89,0.00,,,0.00,0,weatherlink.com 1.10,2013-01-26 07:59:00,
2013-01-26 03:14:00,22.5,21.0,30.10,NNW,332,2.0,6.0,92,0.00,,,0.00,0,weatherlink.com 1.10,2013-01-26 08:14:00,
2013-01-26 03:29:00,22.9,20.0,30.11,NNW,343,3.0,8.0,89,0.00,,,0.00,0,weatherlink.com 1.10,2013-01-26 08:29:00,
2013-01-26 03:44:00,23.2,19.0,30.13,North,355,2.0,7.0,84,0.00,,,0.00,0,weatherlink.com 1.10,2013-01-26 08:44:00,
2013-01-26 03:59:00,23.3,19.0,30.13,NW,306,4.0,8.0,83,0.00,,,0.00,0,weatherlink.com 1.10,2013-01-26 08:59:00,
2013-01-26 04:14:00,23.1,18.0,30.13,NNW,337,4.0,7.0,82,0.00,,,0.00,0,weatherlink.com 1.10,2013-01-26 09:14:00,
2013-01-26 04:29:00,23.1,19.0,30.14,North,11,2.0,6.0,83,0.00,,,0.00,0,weatherlink.com 1.10,2013-01-26 09:29:00,
2013-01-26 04:44:00,22.9,18.0,30.15,NW,310,1.0,7.0,82,0.00,,,0.00,0,weatherlink.com 1.10,2013-01-26 09:44:00,
2013-01-26 04:59:00,22.5,18.0,30.16,North,11,1.0,6.0,83,0.00,,,0.00,0,weatherlink.com 1.10,2013-01-26 09:59:00,
2013-01-26 05:14:00,22.2,18.0,30.16,NNW,333,1.0,6.0,84,0.00,,,0.00,0,weatherlink.com 1.10,2013-01-26 10:14:00,
2013-01-26 05:29:00,21.7,18.0,30.16,North,355,2.0,6.0,85,0.00,,,0.00,0,weatherlink.com 1.10,2013-01-26 10:29:00,
2013-01-26 05:44:00,21.5,17.0,30.17,NW,318,2.0,5.0,84,0.00,,,0.00,0,weatherlink.com 1.10,2013-01-26 10:44:00,
2013-01-26 05:59:00,21.4,17.0,30.17,NW,311,2.0,5.0,83,0.00,,,0.00,0,weatherlink.com 1.10,2013-01-26 10:59:00,
2013-01-26 06:14:00,21.4,17.0,30.18,NW,304,2.0,5.0,83,0.00,,,0.00,0,weatherlink.com 1.10,2013-01-26 11:14:00,
2013-01-26 06:29:00,21.3,17.0,30.18,NW,323,1.0,4.0,84,0.00,,,0.00,0,weatherlink.com 1.10,2013-01-26 11:29:00,
2013-01-26 06:44:00,21.2,17.0,30.19,WNW,302,4.0,7.0,83,0.00,,,0.00,0,weatherlink.com 1.10,2013-01-26 11:44:00,
2013-01-26 06:59:00,21.3,17.0,30.19,NNW,348,2.0,6.0,84,0.00,,,0.00,0,weatherlink.com 1.10,2013-01-26 11:59:00,
2013-01-26 07:14:00,21.2,17.0,30.20,NW,323,3.0,4.0,83,0.00,,,0.00,0,weatherlink.com 1.10,2013-01-26 12:14:00,
2013-01-26 07:29:00,21.1,17.0,30.20,NNW,327,2.0,3.0,83,0.00,,,0.00,0,weatherlink.com 1.10,2013-01-26 12:29:00,
2013-01-26 07:44:00,21.0,17.0,30.21,NW,309,1.0,4.0,83,0.00,,,0.00,0,weatherlink.com 1.10,2013-01-26 12:44:00,
2013-01-26 07:59:00,21.0,17.0,30.21,NW,314,2.0,5.0,85,0.00,,,0.00,0,weatherlink.com 1.10,2013-01-26 12:59:00,
2013-01-26 08:15:00,20.9,17.0,30.23,NW,319,1.0,3.0,85,0.00,,,0.00,0,weatherlink.com 1.10,2013-01-26 13:15:00,
2013-01-26 08:29:00,20.9,16.0,30.24,NW,319,0.0,4.0,82,0.00,,,0.00,5,weatherlink.com 1.10,2013-01-26 13:29:00,
2013-01-26 08:44:00,21.3,15.0,30.25,NW,325,2.0,6.0,78,0.00,,,0.00,16,weatherlink.com 1.10,2013-01-26 13:44:00,
2013-01-26 08:59:00,21.4,15.0,30.27,NW,317,2.0,6.0,76,0.00,,,0.00,18,weatherlink.com 1.10,2013-01-26 13:59:00,
2013-01-26 09:14:00,21.5,16.0,30.27,WNW,302,2.0,4.0,78,0.00,,,0.00,21,weatherlink.com 1.10,2013-01-26 14:14:00,
2013-01-26 09:29:00,21.0,16.0,30.28,WNW,302,0.0,4.0,82,0.00,,,0.00,28,weatherlink.com 1.10,2013-01-26 14:29:00,
2013-01-26 09:45:00,20.7,16.0,30.28,NW,315,2.0,5.0,82,0.00,,,0.00,42,weatherlink.com 1.10,2013-01-26 14:45:00,
2013-01-26 10:00:00,20.8,16.0,30.28,NW,317,2.0,4.0,82,0.00,,,0.00,72,weatherlink.com 1.10,2013-01-26 15:00:00,
2013-01-26 10:15:00,20.9,17.0,30.29,NW,304,2.0,4.0,84,0.00,,,0.00,97,weatherlink.com 1.10,2013-01-26 15:15:00,
2013-01-26 10:30:00,21.1,17.0,30.30,NW,304,1.0,3.0,84,0.00,,,0.00,79,weatherlink.com 1.10,2013-01-26 15:30:00,
2013-01-26 10:45:00,21.2,16.0,30.31,NW,313,1.0,4.0,81,0.00,,,0.00,79,weatherlink.com 1.10,2013-01-26 15:45:00,
2013-01-26 11:00:00,21.6,16.0,30.31,NW,313,0.0,3.0,79,0.00,,,0.00,105,weatherlink.com 1.10,2013-01-26 16:00:00,
2013-01-26 11:15:00,22.1,17.0,30.31,NW,308,2.0,5.0,79,0.00,,,0.00,111,weatherlink.com 1.10,2013-01-26 16:15:00,
2013-01-26 11:30:00,22.1,16.0,30.32,NW,309,2.0,3.0,78,0.00,,,0.00,91,weatherlink.com 1.10,2013-01-26 16:30:00,
2013-01-26 11:45:00,22.4,16.0,30.32,NNW,339,3.0,4.0,76,0.00,,,0.00,128,weatherlink.com 1.10,2013-01-26 16:45:00,
2013-01-26 12:00:00,22.8,15.0,30.33,NW,321,2.0,4.0,72,0.00,,,0.00,151,weatherlink.com 1.10,2013-01-26 17:00:00,
2013-01-26 12:15:00,22.9,15.0,30.33,WNW,300,3.0,5.0,73,0.00,,,0.00,162,weatherlink.com 1.10,2013-01-26 17:15:00,
2013-01-26 12:30:00,23.1,15.0,30.33,NW,314,3.0,4.0,72,0.00,,,0.00,207,weatherlink.com 1.10,2013-01-26 17:30:00,
2013-01-26 12:45:00,23.3,16.0,30.33,NNW,333,2.0,6.0,73,0.00,,,0.00,220,weatherlink.com 1.10,2013-01-26 17:45:00,
2013-01-26 13:00:00,23.2,15.0,30.33,NW,312,1.0,4.0,72,0.00,,,0.00,188,weatherlink.com 1.10,2013-01-26 18:00:00,
2013-01-26 13:15:00,23.6,15.0,30.32,NNW,333,1.0,3.0,71,0.00,,,0.00,141,weatherlink.com 1.10,2013-01-26 18:15:00,
2013-01-26 13:30:00,23.6,14.0,30.32,NW,319,2.0,4.0,68,0.00,,,0.00,176,weatherlink.com 1.10,2013-01-26 18:30:00,
2013-01-26 13:45:00,23.6,15.0,30.32,NW,304,1.0,6.0,70,0.00,,,0.00,183,weatherlink.com 1.10,2013-01-26 18:45:00,
2013-01-26 14:00:00,23.5,16.0,30.32,NW,312,0.0,4.0,73,0.00,,,0.00,123,weatherlink.com 1.10,2013-01-26 19:00:00,
2013-01-26 14:15:00,23.6,16.0,30.32,NE,43,2.0,3.0,74,0.00,,,0.00,190,weatherlink.com 1.10,2013-01-26 19:15:00,
2013-01-26 14:30:00,23.9,16.0,30.32,NE,41,0.0,4.0,72,0.00,,,0.00,109,weatherlink.com 1.10,2013-01-26 19:30:00,
2013-01-26 14:45:00,23.5,16.0,30.32,NW,314,0.0,2.0,73,0.00,,,0.00,100,weatherlink.com 1.10,2013-01-26 19:45:00,
2013-01-26 15:00:00,23.4,16.0,30.33,NW,326,1.0,3.0,73,0.00,,,0.00,111,weatherlink.com 1.10,2013-01-26 20:00:00,
2013-01-26 15:15:00,23.6,16.0,30.32,North,10,2.0,3.0,72,0.00,,,0.00,176,weatherlink.com 1.10,2013-01-26 20:15:00,
2013-01-26 15:30:00,23.8,16.0,30.32,NNW,329,2.0,4.0,71,0.00,,,0.00,148,weatherlink.com 1.10,2013-01-26 20:30:00,
2013-01-26 15:45:00,23.9,16.0,30.32,NNW,329,0.0,3.0,73,0.00,,,0.00,56,weatherlink.com 1.10,2013-01-26 20:45:00,
2013-01-26 16:00:00,23.3,16.0,30.33,NE,46,2.0,5.0,74,0.00,,,0.00,70,weatherlink.com 1.10,2013-01-26 21:00:00,
2013-01-26 16:15:00,23.1,17.0,30.32,NE,46,1.0,2.0,76,0.00,,,0.00,39,weatherlink.com 1.10,2013-01-26 21:15:00,
2013-01-26 16:30:00,22.7,16.0,30.33,NE,46,0.0,1.0,76,0.00,,,0.00,49,weatherlink.com 1.10,2013-01-26 21:30:00,
2013-01-26 16:45:00,22.7,16.0,30.32,NE,46,0.0,2.0,76,0.00,,,0.00,39,weatherlink.com 1.10,2013-01-26 21:45:00,
2013-01-26 17:00:00,22.7,17.0,30.34,NE,46,0.0,2.0,77,0.00,,,0.00,26,weatherlink.com 1.10,2013-01-26 22:00:00,
2013-01-26 17:15:00,22.6,17.0,30.34,NE,46,0.0,1.0,78,0.00,,,0.00,18,weatherlink.com 1.10,2013-01-26 22:15:00,
2013-01-26 17:30:00,22.4,16.0,30.34,NE,46,0.0,0.0,77,0.00,,,0.00,5,weatherlink.com 1.10,2013-01-26 22:30:00,
2013-01-26 17:45:00,22.0,16.0,30.33,NE,46,0.0,0.0,78,0.00,,,0.00,0,weatherlink.com 1.10,2013-01-26 22:45:00,
2013-01-26 18:00:00,21.6,16.0,30.33,NE,46,0.0,0.0,79,0.00,,,0.00,0,weatherlink.com 1.10,2013-01-26 23:00:00,
2013-01-26 18:16:00,21.2,16.0,30.33,NE,46,0.0,0.0,80,0.00,,,0.00,0,weatherlink.com 1.10,2013-01-26 23:16:00,
2013-01-26 18:30:00,20.8,16.0,30.33,NE,46,0.0,0.0,81,0.00,,,0.00,0,weatherlink.com 1.10,2013-01-26 23:30:00,
2013-01-26 18:45:00,20.5,16.0,30.32,NE,46,0.0,0.0,82,0.00,,,0.00,0,weatherlink.com 1.10,2013-01-26 23:45:00,
2013-01-26 19:01:00,20.1,15.0,30.32,NE,46,0.0,0.0,82,0.00,,,0.00,0,weatherlink.com 1.10,2013-01-27 00:01:00,
2013-01-26 19:15:00,19.8,15.0,30.31,NE,46,0.0,0.0,83,0.00,,,0.00,0,weatherlink.com 1.10,2013-01-27 00:15:00,
2013-01-26 19:31:00,20.0,16.0,30.30,NE,46,0.0,1.0,83,0.00,,,0.00,0,weatherlink.com 1.10,2013-01-27 00:31:00,
2013-01-26 19:45:00,19.9,16.0,30.30,NE,46,0.0,0.0,83,0.00,,,0.00,0,weatherlink.com 1.10,2013-01-27 00:45:00,
2013-01-26 20:00:00,20.0,16.0,30.30,NE,46,0.0,0.0,83,0.00,,,0.00,0,weatherlink.com 1.10,2013-01-27 01:00:00,
2013-01-26 20:16:00,19.9,16.0,30.31,NE,46,0.0,0.0,84,0.00,,,0.00,0,weatherlink.com 1.10,2013-01-27 01:16:00,
2013-01-26 20:31:00,19.8,16.0,30.30,NE,46,0.0,0.0,84,0.00,,,0.00,0,weatherlink.com 1.10,2013-01-27 01:31:00,
2013-01-26 20:45:00,19.8,15.0,30.30,NE,46,0.0,0.0,83,0.00,,,0.00,0,weatherlink.com 1.10,2013-01-27 01:45:00,
2013-01-26 21:01:00,19.9,16.0,30.30,NE,46,0.0,0.0,83,0.00,,,0.00,0,weatherlink.com 1.10,2013-01-27 02:01:00,
2013-01-26 21:15:00,20.0,16.0,30.30,NE,46,0.0,0.0,83,0.00,,,0.00,0,weatherlink.com 1.10,2013-01-27 02:15:00,
2013-01-26 21:31:00,20.0,16.0,30.30,NE,46,0.0,1.0,84,0.00,,,0.00,0,weatherlink.com 1.10,2013-01-27 02:31:00,
2013-01-26 21:45:00,20.2,16.0,30.29,SSE,167,1.0,3.0,83,0.00,,,0.00,0,weatherlink.com 1.10,2013-01-27 02:45:00,
2013-01-26 22:00:00,20.7,16.0,30.30,SSE,168,1.0,3.0,81,0.00,,,0.00,0,weatherlink.com 1.10,2013-01-27 03:00:00,
2013-01-26 22:16:00,21.2,16.0,30.30,South,169,2.0,4.0,80,0.00,,,0.00,0,weatherlink.com 1.10,2013-01-27 03:16:00,
2013-01-26 22:31:00,21.5,16.0,30.29,South,179,1.0,6.0,80,0.00,,,0.00,0,weatherlink.com 1.10,2013-01-27 03:31:00,
2013-01-26 22:46:00,21.8,17.0,30.29,SSE,165,4.0,5.0,80,0.00,,,0.00,0,weatherlink.com 1.10,2013-01-27 03:46:00,
2013-01-26 23:00:00,22.0,17.0,30.29,South,182,1.0,4.0,80,0.00,,,0.00,0,weatherlink.com 1.10,2013-01-27 04:00:00,
2013-01-26 23:15:00,22.4,17.0,30.29,South,186,4.0,7.0,79,0.00,,,0.00,0,weatherlink.com 1.10,2013-01-27 04:15:00,
2013-01-26 23:31:00,22.6,17.0,30.29,SSE,162,2.0,6.0,78,0.00,,,0.00,0,weatherlink.com 1.10,2013-01-27 04:31:00,
2013-01-26 23:46:00,22.6,17.0,30.29,South,184,4.0,8.0,78,0.00,,,0.00,0,weatherlink.com 1.10,2013-01-27 04:46:00,